Regional Weather Roundup
Issued by NWS Kansas City/Pleasant Hill, MO

Home | Current Version | Previous Version | Graphics & Text | Print | Product List | Glossary Off
Versions: 1 2 3 4 5 6 7 8 9 10 11 12 13 14 15 16 17 18 19 20 21 22 23 24 25 26 27 28 29 30 31 32 33 34 35 36 37 38 39 40 41 42 43 44 45 46 47 48 49 50

491
ASUS43 KEAX 071110
RWREAX

WEATHER ROUNDUP FOR EASTERN KANSAS AND NORTHWEST MISSOURI
NATIONAL WEATHER SERVICE KANSAS CITY/PLEASANT HILL MO
500 AM CST WED DEC 07 2016

KSZ040-057-103>105-MOZ028-029-037-043-071200-
...KANSAS CITY METROPOLITAN AREA...

CITY           SKY/WX    TMP DP  RH WIND       PRES   REMARKS
K.C. INTL      CLOUDY    27  14  58 N5        30.18S WCI  22
K.C. DOWNTOWN  CLOUDY    32  14  47 N6        30.18F WCI  26
LEES SUMMIT    CLOUDY    31  14  49 N13       30.16F WCI  21
OLATHE - IXD   CLOUDY    30  13  49 N7        30.15F WCI  23
OLATHE - OJC   CLOUDY    30  11  45 NE13      30.14F WCI  20
LAWRENCE       CLOUDY    30  14  51 N6        30.17F WCI  24

$$

MOZ001>008-011>017-020>025-030>033-038>040-044>046-053-054-071200-
...NORTHERN AND CENTRAL MISSOURI...

CITY           SKY/WX    TMP DP  RH WIND       PRES   REMARKS
ST. JOSEPH     CLOUDY    25  15  66 N6        30.20S WCI  18
MOSBY            N/A     30  14  51 CALM      30.19F
WARRENSBURG    CLOUDY    32  18  55 N9        30.16F WCI  24
WHITEMAN AFB   MOCLDY    31  15  52 N10       30.15F WCI  22
CLINTON        CLOUDY    32  19  59 CALM      30.17S
SEDALIA        CLOUDY    32  15  49 N12       30.16F WCI  23
WARSAW         NOT AVBL
CHILLICOTHE      N/A     26  14  60 CALM      30.21R
KIRKSVILLE     CLOUDY    27  13  55 W6        30.16S WCI  20

$$

MOZ041-047>049-056>058-063>065-088>090-097-071200-
...EASTERN AND SOUTHERN MISSOURI...

CITY           SKY/WX    TMP DP  RH WIND       PRES   REMARKS
ST. LOUIS INTL MOCLDY    32  16  51 W7        30.19R WCI  26
SPIRIT OF STL  PTCLDY    29  19  66 W5        30.19S WCI  24
COLUMBIA       CLOUDY    30  16  56 N10       30.16F WCI  21
JEFFERSON CITY CLOUDY    28  20  71 CALM      30.18F
ROLLA          CLOUDY    27  20  75 CALM      30.16S
OSAGE BEACH    CLOUDY    27  22  81 CALM      30.18F
SPRINGFIELD    CLOUDY    28  17  63 NE5       30.14S WCI  23
BRANSON        CLEAR     27  18  69 CALM      30.17R
JOPLIN         CLOUDY    30  20  66 E6        30.17R WCI  24
WEST PLAINS    CLEAR     26  18  71 NE5       30.16F WCI  20

$$

IAZ060-094-KSZ022-034>040-054-083-096-NEZ052-066-093-071200-
...KANSAS...SOUTHEAST NEBRASKA AND IOWA...

CITY           SKY/WX    TMP DP  RH WIND       PRES   REMARKS
TOPEKA         CLOUDY    29  15  56 N6        30.17F WCI  23
MANHATTAN      PTCLDY    25  13  60 N3        30.18R
EMPORIA        CLOUDY    26  15  63 NE7       30.14F WCI  18
CHANUTE        CLOUDY    34  17  50 NE8       30.14R WCI  27
WICHITA        CLOUDY    34  16  47 E7        30.12R WCI  28
OMAHA          MOCLDY    17   8  67 NW12      30.22R WCI   4
LINCOLN        PTCLDY    19   9  65 NW12      30.24R WCI   7
FALLS CITY     MOCLDY    24  14  65 NW9       30.20R WCI  14
LAMONI         CLOUDY    23  13  65 NW12      30.15S WCI  12
DES MOINES     MOCLDY    20  10  65 NW10      30.16R WCI   9

$$





USA.gov is the U.S. government's official web portal to all federal, state and local government web resources and services.